^^
TXWeather Station Historical Data
 
Daily Summary for August 16, 2022 Units:  English    Metric   Both
Daily Weekly Monthly Yearly Custom
  Current: High: Low: Average:
Temperature: 99.3 °F 99.7 °F 75.9 °F 85.9 °F
Dew Point: 73.4 °F 77.9 °F 72.5 °F 74.8 °F
Humidity: 44% 90% 44% 72%
Wind Speed: 6mph 12mph 0mph 4.1mph
Wind Gust: 6mph 12mph - -
WindESE - - SSE
Pressure: 29.9 in 30.0 in 29.9 in -
Precipitation: 0.000 in      
Historical Graphs
 
 
Tabular Data for August 16, 2022
Time Temperature Dew Point Pressure Wind Wind Speed Wind Gust Humidity Rainfall Rate (Hourly) solar
00:04 82.6 °F 74.3 °F 30.0 in SSE 5 mph 6 mph 76% 0.000 in 0.00 W/m2
00:09 82.2 °F 73.9 °F 30.0 in SSE 7 mph 7 mph 76% 0.000 in 0.00 W/m2
00:14 82.2 °F 73.9 °F 30.0 in SSE 5 mph 5 mph 76% 0.000 in 0.00 W/m2
00:19 82.2 °F 73.9 °F 30.0 in South 3 mph 5 mph 76% 0.000 in 0.00 W/m2
00:24 82.0 °F 73.8 °F 30.0 in South 5 mph 5 mph 76% 0.000 in 0.00 W/m2
00:29 82.0 °F 74.1 °F 30.0 in SSE 4 mph 5 mph 77% 0.000 in 0.00 W/m2
00:34 82.0 °F 74.1 °F 30.0 in South 5 mph 5 mph 77% 0.000 in 0.00 W/m2
00:39 81.9 °F 73.9 °F 30.0 in South 5 mph 6 mph 77% 0.000 in 0.00 W/m2
00:44 81.7 °F 73.8 °F 30.0 in South 5 mph 5 mph 77% 0.000 in 0.00 W/m2
00:49 81.7 °F 73.8 °F 30.0 in SSE 5 mph 5 mph 77% 0.000 in 0.00 W/m2
00:54 81.7 °F 74.1 °F 30.0 in SSE 5 mph 5 mph 78% 0.000 in 0.00 W/m2
00:59 81.7 °F 74.1 °F 30.0 in SSE 5 mph 5 mph 78% 0.000 in 0.00 W/m2
01:04 81.3 °F 73.8 °F 30.0 in SSE 6 mph 6 mph 78% 0.000 in 0.00 W/m2
01:09 81.1 °F 73.6 °F 30.0 in SSE 6 mph 7 mph 78% 0.000 in 0.00 W/m2
01:14 81.1 °F 73.9 °F 30.0 in SSE 4 mph 4 mph 79% 0.000 in 0.00 W/m2
01:16 81.0 °F 73.8 °F 30.0 in SSE 3 mph 4 mph 79% 0.000 in 0.00 W/m2
01:24 81.0 °F 73.8 °F 30.0 in SSE 5 mph 5 mph 79% 0.000 in 0.00 W/m2
01:29 80.8 °F 73.9 °F 30.0 in South 4 mph 5 mph 80% 0.000 in 0.00 W/m2
01:34 80.6 °F 73.9 °F 30.0 in South 5 mph 5 mph 80% 0.000 in 0.00 W/m2
01:39 80.8 °F 73.9 °F 30.0 in SSE 5 mph 5 mph 80% 0.000 in 0.00 W/m2
01:44 80.6 °F 73.9 °F 30.0 in SSE 4 mph 5 mph 80% 0.000 in 0.00 W/m2
01:49 80.6 °F 73.9 °F 30.0 in SSE 5 mph 5 mph 80% 0.000 in 0.00 W/m2
01:54 80.6 °F 73.9 °F 30.0 in South 4 mph 5 mph 80% 0.000 in 0.00 W/m2
01:59 80.4 °F 73.8 °F 30.0 in South 2 mph 5 mph 80% 0.000 in 0.00 W/m2
02:04 80.1 °F 73.8 °F 30.0 in South 2 mph 2 mph 81% 0.000 in 0.00 W/m2
02:09 80.1 °F 73.8 °F 30.0 in South 2 mph 2 mph 81% 0.000 in 0.00 W/m2
02:14 79.7 °F 73.4 °F 30.0 in South 1 mph 2 mph 81% 0.000 in 0.00 W/m2
02:19 79.5 °F 73.6 °F 30.0 in South 2 mph 2 mph 82% 0.000 in 0.00 W/m2
02:24 79.3 °F 73.4 °F 30.0 in South 3 mph 3 mph 82% 0.000 in 0.00 W/m2
02:29 79.5 °F 73.6 °F 30.0 in South 2 mph 3 mph 82% 0.000 in 0.00 W/m2
02:34 79.5 °F 73.6 °F 30.0 in South 2 mph 3 mph 82% 0.000 in 0.00 W/m2
02:39 79.5 °F 73.6 °F 30.0 in South 2 mph 2 mph 82% 0.000 in 0.00 W/m2
02:44 79.3 °F 73.4 °F 30.0 in South 1 mph 2 mph 82% 0.000 in 0.00 W/m2
02:49 79.2 °F 73.4 °F 30.0 in South 1 mph 1 mph 83% 0.000 in 0.00 W/m2
02:54 79.0 °F 73.4 °F 30.0 in South 1 mph 1 mph 83% 0.000 in 0.00 W/m2
02:59 78.6 °F 73.4 °F 30.0 in South 2 mph 2 mph 84% 0.000 in 0.00 W/m2
03:04 79.0 °F 73.4 °F 30.0 in South 2 mph 2 mph 84% 0.000 in 0.00 W/m2
03:09 79.0 °F 73.4 °F 30.0 in South 1 mph 2 mph 83% 0.000 in 0.00 W/m2
03:14 78.6 °F 73.2 °F 30.0 in South 1 mph 1 mph 84% 0.000 in 0.00 W/m2
03:19 78.3 °F 73.0 °F 30.0 in South 1 mph 1 mph 84% 0.000 in 0.00 W/m2
03:24 78.1 °F 73.2 °F 30.0 in Calm   1 mph 85% 0.000 in 0.00 W/m2
03:29 77.7 °F 72.9 °F 30.0 in Calm     85% 0.000 in 0.00 W/m2
03:34 77.7 °F 73.0 °F 30.0 in Calm     86% 0.000 in 0.00 W/m2
03:39 77.5 °F 73.0 °F 30.0 in Calm     86% 0.000 in 0.00 W/m2
03:44 77.5 °F 73.0 °F 30.0 in Calm     86% 0.000 in 0.00 W/m2
03:49 77.4 °F 72.9 °F 30.0 in Calm     86% 0.000 in 0.00 W/m2
03:54 77.2 °F 73.0 °F 30.0 in Calm     87% 0.000 in 0.00 W/m2
03:59 77.4 °F 73.2 °F 30.0 in South 1 mph 1 mph 87% 0.000 in 0.00 W/m2
04:04 77.4 °F 73.2 °F 30.0 in South 1 mph 1 mph 87% 0.000 in 0.00 W/m2
04:09 77.4 °F 72.9 °F 30.0 in Calm   1 mph 86% 0.000 in 0.00 W/m2
04:14 77.2 °F 72.7 °F 30.0 in Calm   1 mph 87% 0.000 in 0.00 W/m2
04:19 76.8 °F 72.7 °F 30.0 in South 1 mph 1 mph 87% 0.000 in 0.00 W/m2
04:24 77.0 °F 72.9 °F 30.0 in South 1 mph 1 mph 87% 0.000 in 0.00 W/m2
04:29 77.0 °F 72.9 °F 30.0 in South 2 mph 2 mph 87% 0.000 in 0.00 W/m2
04:34 77.2 °F 73.0 °F 30.0 in South 1 mph 1 mph 87% 0.000 in 0.00 W/m2
04:39 77.0 °F 72.9 °F 30.0 in Calm   1 mph 87% 0.000 in 0.00 W/m2
04:44 76.8 °F 72.7 °F 30.0 in Calm     87% 0.000 in 0.00 W/m2
04:49 76.6 °F 72.9 °F 30.0 in Calm   1 mph 88% 0.000 in 0.00 W/m2
04:54 76.6 °F 72.9 °F 30.0 in Calm   1 mph 88% 0.000 in 0.00 W/m2
04:59 76.5 °F 72.7 °F 30.0 in Calm     88% 0.000 in 0.00 W/m2
05:04 76.5 °F 72.7 °F 30.0 in Calm     88% 0.000 in 0.00 W/m2
05:09 76.5 °F 72.9 °F 30.0 in Calm     89% 0.000 in 0.00 W/m2
05:14 76.5 °F 73.0 °F 30.0 in Calm   1 mph 89% 0.000 in 0.00 W/m2
05:19 76.3 °F 72.9 °F 30.0 in Calm   1 mph 89% 0.000 in 0.00 W/m2
05:24 76.5 °F 73.0 °F 30.0 in Calm     89% 0.000 in 0.00 W/m2
05:29 76.5 °F 73.0 °F 30.0 in Calm     89% 0.000 in 0.00 W/m2
05:34 76.5 °F 73.0 °F 30.0 in South 1 mph 1 mph 89% 0.000 in 0.00 W/m2
05:39 76.5 °F 73.0 °F 30.0 in Calm   1 mph 89% 0.000 in 0.00 W/m2
05:44 76.5 °F 73.0 °F 30.0 in Calm     89% 0.000 in 0.00 W/m2
05:49 76.5 °F 73.0 °F 30.0 in South 1 mph 1 mph 89% 0.000 in 0.00 W/m2
05:54 76.5 °F 73.0 °F 30.0 in South 1 mph 1 mph 89% 0.000 in 0.00 W/m2
05:59 76.5 °F 73.0 °F 30.0 in South 1 mph 1 mph 89% 0.000 in 0.00 W/m2
06:04 76.3 °F 72.9 °F 30.0 in South 2 mph 2 mph 89% 0.000 in 0.00 W/m2
06:09 76.3 °F 72.9 °F 30.0 in South 2 mph 2 mph 89% 0.000 in 0.00 W/m2
06:14 76.1 °F 72.7 °F 30.0 in South 2 mph 2 mph 89% 0.000 in 0.00 W/m2
06:19 75.9 °F 72.5 °F 30.0 in South 2 mph 2 mph 89% 0.000 in 0.00 W/m2
06:24 76.1 °F 72.7 °F 30.0 in South 2 mph 2 mph 89% 0.000 in 0.00 W/m2
06:29 76.1 °F 72.7 °F 30.0 in South 2 mph 2 mph 89% 0.000 in 0.00 W/m2
06:34 76.1 °F 72.7 °F 30.0 in South 1 mph 1 mph 89% 0.000 in 0.00 W/m2
06:39 75.9 °F 72.9 °F 30.0 in South 1 mph 1 mph 90% 0.000 in 0.00 W/m2
06:44 76.1 °F 72.9 °F 30.0 in South 2 mph 2 mph 90% 0.000 in 0.00 W/m2
06:49 76.3 °F 72.9 °F 30.0 in South 4 mph 4 mph 89% 0.000 in 0.00 W/m2
06:54 76.3 °F 72.9 °F 30.0 in SSE 3 mph 4 mph 89% 0.000 in 0.00 W/m2
06:59 76.3 °F 72.9 °F 30.0 in SSE 1 mph 3 mph 89% 0.000 in 9.00 W/m2
07:04 76.5 °F 73.0 °F 30.0 in SSE 3 mph 3 mph 89% 0.000 in 12.00 W/m2
07:09 76.5 °F 73.0 °F 30.0 in SSE 1 mph 3 mph 89% 0.000 in 16.00 W/m2
07:14 76.6 °F 73.2 °F 30.0 in SSE 2 mph 2 mph 89% 0.000 in 19.00 W/m2
07:19 76.6 °F 73.2 °F 30.0 in SSE 1 mph 2 mph 89% 0.000 in 21.00 W/m2
07:24 76.8 °F 73.4 °F 30.0 in SSE 1 mph 2 mph 89% 0.000 in 25.00 W/m2
07:29 77.2 °F 73.8 °F 30.0 in SSE 1 mph 2 mph 89% 0.000 in 28.00 W/m2
07:34 77.4 °F 73.8 °F 30.0 in SSE 1 mph 1 mph 89% 0.000 in 32.00 W/m2
07:39 77.5 °F 73.8 °F 30.0 in Calm   1 mph 88% 0.000 in 33.00 W/m2
07:44 78.1 °F 74.3 °F 30.0 in Calm   1 mph 88% 0.000 in 35.00 W/m2
07:49 78.4 °F 74.3 °F 30.0 in Calm   1 mph 88% 0.000 in 37.00 W/m2
07:54 79.0 °F 74.8 °F 30.0 in SSE 1 mph 1 mph 87% 0.000 in 39.00 W/m2
07:59 79.3 °F 74.8 °F 30.0 in SSE 1 mph 1 mph 87% 0.000 in 40.00 W/m2
08:04 79.7 °F 75.0 °F 30.0 in SSE 1 mph 1 mph 86% 0.000 in 51.00 W/m2
08:09 80.1 °F 75.2 °F 30.0 in SSE 1 mph 2 mph 85% 0.000 in 51.00 W/m2
08:14 80.8 °F 75.9 °F 30.0 in SSE 3 mph 3 mph 85% 0.000 in 47.00 W/m2
08:19 81.1 °F 75.9 °F 30.0 in SSE 2 mph 3 mph 84% 0.000 in 44.00 W/m2
08:24 81.5 °F 76.3 °F 30.0 in SSE 5 mph 5 mph 84% 0.000 in 46.00 W/m2
08:29 82.0 °F 76.3 °F 30.0 in South 3 mph 4 mph 83% 0.000 in 46.00 W/m2
08:34 82.6 °F 76.6 °F 30.0 in South 5 mph 5 mph 83% 0.000 in 47.00 W/m2
08:39 82.8 °F 76.6 °F 30.0 in South 5 mph 5 mph 82% 0.000 in 69.00 W/m2
08:44 83.3 °F 76.8 °F 30.0 in SE 4 mph 4 mph 82% 0.000 in 79.00 W/m2
08:49 83.8 °F 77.0 °F 30.0 in SE 6 mph 6 mph 80% 0.000 in 142.00 W/m2
08:54 84.0 °F 77.2 °F 30.0 in SSE 5 mph 5 mph 80% 0.000 in 343.00 W/m2
08:59 84.4 °F 77.2 °F 30.0 in SE 5 mph 5 mph 79% 0.000 in 378.00 W/m2
09:04 84.7 °F 77.4 °F 30.0 in SSE 6 mph 6 mph 79% 0.000 in 392.00 W/m2
09:09 84.9 °F 77.4 °F 30.0 in South 6 mph 6 mph 78% 0.000 in 410.00 W/m2
09:14 85.5 °F 77.2 °F 30.0 in SSE 7 mph 7 mph 77% 0.000 in 434.00 W/m2
09:19 85.6 °F 77.2 °F 30.0 in South 4 mph 5 mph 76% 0.000 in 450.00 W/m2
09:24 85.6 °F 77.5 °F 30.0 in SSW 4 mph 4 mph 77% 0.000 in 466.00 W/m2
09:29 86.4 °F 77.7 °F 30.0 in SSW 5 mph 5 mph 76% 0.000 in 483.00 W/m2
09:34 86.4 °F 77.0 °F 30.0 in SW 5 mph 5 mph 74% 0.000 in 519.00 W/m2
09:39 87.1 °F 77.4 °F 30.0 in South 5 mph 6 mph 74% 0.000 in 543.00 W/m2
09:44 87.3 °F 77.5 °F 30.0 in SSE 7 mph 7 mph 73% 0.000 in 554.00 W/m2
09:49 87.6 °F 77.9 °F 30.0 in SSE 5 mph 6 mph 73% 0.000 in 591.00 W/m2
09:54 88.0 °F 77.7 °F 30.0 in SSE 5 mph 6 mph 73% 0.000 in 631.00 W/m2
09:59 88.3 °F 77.4 °F 30.0 in South 6 mph 6 mph 71% 0.000 in 631.00 W/m2
10:04 87.6 °F 77.2 °F 30.0 in SSE 8 mph 8 mph 72% 0.000 in 647.00 W/m2
10:09 88.5 °F 77.7 °F 30.0 in SSE 7 mph 8 mph 71% 0.000 in 652.00 W/m2
10:14 89.4 °F 77.9 °F 30.0 in SE 7 mph 7 mph 70% 0.000 in 663.00 W/m2
10:19 89.4 °F 77.5 °F 30.0 in SSE 6 mph 7 mph 68% 0.000 in 661.00 W/m2
10:24 89.8 °F 77.7 °F 30.0 in SE 3 mph 5 mph 68% 0.000 in 671.00 W/m2
10:29 89.6 °F 77.5 °F 30.0 in South 4 mph 6 mph 68% 0.000 in 663.00 W/m2
10:34 88.7 °F 76.1 °F 30.0 in WSW 6 mph 6 mph 67% 0.000 in 661.00 W/m2
10:39 88.3 °F 76.5 °F 30.0 in WSW 5 mph 5 mph 68% 0.000 in 664.00 W/m2
10:44 90.7 °F 77.9 °F 30.0 in SE 4 mph 4 mph 68% 0.000 in 631.00 W/m2
10:49 91.2 °F 77.5 °F 30.0 in South 6 mph 7 mph 65% 0.000 in 631.00 W/m2
10:54 91.0 °F 76.6 °F 30.0 in South 4 mph 5 mph 63% 0.000 in 657.00 W/m2
10:59 91.0 °F 77.2 °F 30.0 in South 5 mph 5 mph 64% 0.000 in 687.00 W/m2
11:04 91.9 °F 77.4 °F 30.0 in SSE 9 mph 10 mph 64% 0.000 in 747.00 W/m2
11:09 92.1 °F 76.6 °F 30.0 in SSE 7 mph 10 mph 61% 0.000 in 775.00 W/m2
11:14 92.1 °F 76.6 °F 30.0 in SE 9 mph 10 mph 61% 0.000 in 851.00 W/m2
11:19 93.0 °F 76.8 °F 30.0 in SSE 7 mph 10 mph 60% 0.000 in 882.00 W/m2
11:24 93.2 °F 76.6 °F 30.0 in SE 7 mph 8 mph 59% 0.000 in 895.00 W/m2
11:29 93.0 °F 76.6 °F 30.0 in SE 8 mph 8 mph 59% 0.000 in 900.00 W/m2
11:34 93.9 °F 76.6 °F 30.0 in SSE 7 mph 8 mph 59% 0.000 in 930.00 W/m2
11:39 93.6 °F 75.6 °F 30.0 in East 5 mph 7 mph 56% 0.000 in 928.00 W/m2
11:44 94.5 °F 76.8 °F 30.0 in SE 8 mph 8 mph 58% 0.000 in 937.00 W/m2
11:49 94.3 °F 76.6 °F 30.0 in SSE 8 mph 8 mph 58% 0.000 in 939.00 W/m2
11:54 94.8 °F 75.7 °F 30.0 in SSE 4 mph 6 mph 55% 0.000 in 940.00 W/m2
11:59 94.1 °F 75.4 °F 30.0 in South 4 mph 5 mph 55% 0.000 in 963.00 W/m2
12:02 94.6 °F 75.6 °F 30.0 in SSE 7 mph 8 mph 55% 0.000 in 979.00 W/m2
12:09 95.4 °F 77.0 °F 30.0 in SSE 7 mph 7 mph 56% 0.000 in 972.00 W/m2
12:14 95.4 °F 75.4 °F 30.0 in SSE 9 mph 10 mph 53% 0.000 in 984.00 W/m2
12:19 95.2 °F 75.4 °F 30.0 in SSE 8 mph 9 mph 54% 0.000 in 1004.00 W/m2
12:24 95.7 °F 75.9 °F 30.0 in SSE 10 mph 10 mph 53% 0.000 in 997.00 W/m2
12:29 96.1 °F 76.8 °F 30.0 in SSE 6 mph 9 mph 54% 0.000 in 1009.00 W/m2
12:34 95.7 °F 76.8 °F 30.0 in NE 5 mph 7 mph 55% 0.000 in 1018.00 W/m2
12:39 95.4 °F 77.0 °F 30.0 in WSW 6 mph 7 mph 56% 0.000 in 1048.00 W/m2
12:44 94.6 °F 75.9 °F 30.0 in West 6 mph 7 mph 55% 0.000 in 1056.00 W/m2
12:49 95.5 °F 76.6 °F 30.0 in SSE 6 mph 7 mph 55% 0.000 in 1058.00 W/m2
12:54 95.4 °F 75.6 °F 30.0 in SE 7 mph 7 mph 54% 0.000 in 1056.00 W/m2
12:59 96.1 °F 76.5 °F 30.0 in SSE 6 mph 7 mph 54% 0.000 in 1046.00 W/m2
13:04 97.0 °F 76.1 °F 30.0 in SSE 8 mph 8 mph 52% 0.000 in 1023.00 W/m2
13:09 97.2 °F 75.4 °F 30.0 in SE 5 mph 8 mph 51% 0.000 in 1021.00 W/m2
13:14 95.7 °F 75.2 °F 30.0 in South 7 mph 10 mph 52% 0.000 in 914.00 W/m2
13:19 96.4 °F 75.7 °F 30.0 in SSE 9 mph 9 mph 52% 0.000 in 1007.00 W/m2
13:24 97.3 °F 76.1 °F 30.0 in South 5 mph 8 mph 51% 0.000 in 1027.00 W/m2
13:29 97.5 °F 75.7 °F 30.0 in SSW 5 mph 6 mph 50% 0.000 in 1020.00 W/m2
13:34 97.3 °F 75.9 °F 30.0 in SSE 9 mph 9 mph 51% 0.000 in 997.00 W/m2
13:39 97.0 °F 74.7 °F 30.0 in SE 9 mph 9 mph 50% 0.000 in 986.00 W/m2
13:44 97.0 °F 75.2 °F 30.0 in ESE 4 mph 8 mph 50% 0.000 in 976.00 W/m2
13:49 97.3 °F 75.4 °F 30.0 in SSE 11 mph 12 mph 50% 0.000 in 984.00 W/m2
13:54 97.7 °F 77.0 °F 30.0 in SSE 6 mph 7 mph 52% 0.000 in 993.00 W/m2
13:59 97.7 °F 77.0 °F 30.0 in SE 4 mph 8 mph 52% 0.000 in 983.00 W/m2
14:04 97.5 °F 77.0 °F 30.0 in ENE 5 mph 5 mph 52% 0.000 in 995.00 W/m2
14:09 97.3 °F 76.1 °F 30.0 in SE 8 mph 8 mph 51% 0.000 in 1030.00 W/m2
14:14 97.5 °F 74.8 °F 30.0 in SE 9 mph 10 mph 49% 0.000 in 1030.00 W/m2
14:19 97.7 °F 75.0 °F 30.0 in ESE 7 mph 9 mph 49% 0.000 in 1021.00 W/m2
14:24 97.5 °F 74.3 °F 30.0 in SSE 5 mph 7 mph 48% 0.000 in 1011.00 W/m2
14:29 96.6 °F 73.8 °F 30.0 in East 3 mph 3 mph 49% 0.000 in 1035.00 W/m2
14:34 96.6 °F 75.2 °F 30.0 in SSE 5 mph 6 mph 51% 0.000 in 1020.00 W/m2
14:39 97.9 °F 75.6 °F 30.0 in SSE 6 mph 6 mph 50% 0.000 in 988.00 W/m2
14:44 98.8 °F 75.7 °F 30.0 in SE 4 mph 6 mph 48% 0.000 in 986.00 W/m2
14:49 99.0 °F 75.2 °F 30.0 in South 7 mph 7 mph 47% 0.000 in 960.00 W/m2
14:54 99.0 °F 75.7 °F 30.0 in SSE 10 mph 10 mph 48% 0.000 in 960.00 W/m2
14:59 99.0 °F 75.7 °F 30.0 in SSE 8 mph 8 mph 48% 0.000 in 933.00 W/m2
15:04 99.0 °F 75.2 °F 30.0 in SSE 8 mph 9 mph 47% 0.000 in 930.00 W/m2
15:09 99.1 °F 75.2 °F 30.0 in SE 7 mph 7 mph 47% 0.000 in 896.00 W/m2
15:14 98.2 °F 74.3 °F 30.0 in ENE 5 mph 7 mph 47% 0.000 in 879.00 W/m2
15:19 99.3 °F 74.8 °F 30.0 in SE 7 mph 8 mph 46% 0.000 in 877.00 W/m2
15:24 99.1 °F 74.3 °F 30.0 in SSW 5 mph 5 mph 46% 0.000 in 867.00 W/m2
15:29 97.5 °F 73.9 °F 30.0 in West 5 mph 5 mph 47% 0.000 in 865.00 W/m2
15:34 99.0 °F 75.0 °F 30.0 in SW 6 mph 6 mph 47% 0.000 in 877.00 W/m2
15:39 99.1 °F 75.4 °F 30.0 in SSE 11 mph 11 mph 47% 0.000 in 867.00 W/m2
15:44 99.1 °F 74.1 °F 30.0 in SSE 12 mph 12 mph 45% 0.000 in 847.00 W/m2
15:49 99.7 °F 74.5 °F 30.0 in South 8 mph 10 mph 45% 0.000 in 828.00 W/m2
15:54 99.0 °F 74.5 °F 30.0 in SSW 6 mph 7 mph 46% 0.000 in 819.00 W/m2
15:59 99.0 °F 74.5 °F 30.0 in SW 7 mph 7 mph 46% 0.000 in 802.00 W/m2
16:04 99.0 °F 74.5 °F 30.0 in SW 4 mph 6 mph 46% 0.000 in 802.00 W/m2
16:09 99.3 °F 74.3 °F 29.9 in SSE 9 mph 9 mph 46% 0.000 in 788.00 W/m2
16:14 99.7 °F 74.5 °F 29.9 in ESE 5 mph 8 mph 45% 0.000 in 784.00 W/m2
16:19 99.7 °F 73.4 °F 29.9 in ESE 6 mph 6 mph 44% 0.000 in 707.00 W/m2
16:21 99.3 °F 73.4 °F 29.9 in ESE 6 mph 6 mph 44% 0.000 in 700.00 W/m2
Villages of Bridgestone, Spring, TX USA
Compliments of Weather Underground - 4 mb